Asswan, Egypt

1:37 PM EET on February 24, 2017 (GMT +0200)
Aswan

Weather History for HESN - November, 2011

Change the Weather History Date:

Thursday, November 10, 2011

  Actual Average Record
Temperature  
Mean Temperature 72 °F -  
Max Temperature 85 °F 79 °F 98 °F (2016)
Min Temperature 59 °F 57 °F 57 °F (2005)
Cooling Degree Days 7    
Growing Degree Days 22 (Base 50)    
Moisture  
Dew Point 41 °F    
Average Humidity 33    
Maximum Humidity 52    
Minimum Humidity 16    
Precipitation  
Precipitation 0.00 in 0.00 in - ()
Sea Level Pressure  
Sea Level Pressure 29.90 in    
Wind  
Wind Speed 6 mph ()    
Max Wind Speed 9 mph    
Max Gust Speed -    
Visibility 6.0 miles    
Events      
Averages and records for this station are not official NWS values.
T = Trace of Precipitation, MM = Missing Value Source: Averaged Metar Reports

Daily Weather History Graph

Daily Weather History Graph

Search for Another Location

Airport or City:

Trip Planner

Search our weather history database for the weather conditions in past years. The results will help you decide how hot, cold, wet, or windy it might be!

Date:

Astronomy

Nov. 10, 2011 Rise Set
Actual Time 6:00 AM EET 5:05 PM EET
Civil Twilight 5:36 AM EET 5:28 PM EET
Nautical Twilight 5:09 AM EET 5:55 PM EET
Astronomical Twilight 4:42 AM EET 6:22 PM EET
Moon 4:44 PM EET (11/10) 5:30 AM EET (11/10)
Length of Visible Light 11h 52m
Length of Day
11h 04m
Full, 100% of the Moon is Illuminated
Nov 10
Full
Nov 10
Full
Nov 18
Last Quarter
Nov 25
New
Dec 2
First Quarter

Hourly Weather History & Observations

Time (EET) Temp. Dew Point Humidity Pressure Visibility Wind Dir Wind Speed Gust Speed Precip Events Conditions
12:00 AM 66.2 °F 39.2 °F 37% 29.95 in - North 6.9 mph - N/A   Clear
1:00 AM 64.4 °F 37.4 °F 37% 29.95 in - North 6.9 mph - N/A   Clear
2:00 AM 64 °F 40 °F 29% 29.91 in 6 mi NNW 5.8 mph - -  
2:00 AM 64.4 °F 39.2 °F 40% 29.92 in - NNW 5.8 mph - N/A   Clear
3:00 AM 62.6 °F 39.2 °F 42% 29.92 in - North 6.9 mph - N/A   Clear
4:00 AM 62.6 °F 41.0 °F 45% 29.89 in - North 6.9 mph - N/A   Clear
5:00 AM 60.8 °F 41.0 °F 48% 29.89 in - North 6.9 mph - N/A   Clear
6:00 AM 59.0 °F 41.0 °F 51% 29.89 in - North 5.8 mph - N/A   Clear
7:00 AM 60.8 °F 42.8 °F 52% 29.92 in - North 8.1 mph - N/A   Clear
8:00 AM 65 °F 44 °F 35% 29.93 in 6 mi North 8.1 mph - -   Clear
8:00 AM 64.4 °F 44.6 °F 49% 29.92 in - North 8.1 mph - N/A   Clear
9:00 AM 69.8 °F 42.8 °F 38% 29.95 in - North 9.2 mph - N/A   Clear
10:00 AM 73.4 °F 44.6 °F 36% 29.95 in - NNE 8.1 mph - N/A   Clear
11:00 AM 78.8 °F 44.6 °F 30% 29.92 in - NNE 5.8 mph - N/A   Clear
1:00 PM 82.4 °F 42.8 °F 25% 29.89 in - North 5.8 mph - N/A   Clear
2:00 PM 84.2 °F 42.8 °F 23% 29.86 in - North 8.1 mph - N/A   Clear
3:00 PM 86.0 °F 42.8 °F 22% 29.86 in - North 6.9 mph - N/A   Clear
4:00 PM 84.2 °F 42.8 °F 23% 29.86 in - North 8.1 mph - N/A   Clear
5:00 PM 82.4 °F 42.8 °F 25% 29.86 in - North 6.9 mph - N/A   Clear
6:00 PM 80.6 °F 41.0 °F 24% 29.86 in - North 8.1 mph - N/A   Clear
7:00 PM 78.8 °F 41.0 °F 26% 29.86 in - North 8.1 mph - N/A   Clear
8:00 PM 76 °F 39 °F 16% 29.87 in 6 mi North 5.8 mph - -  
8:00 PM 77.0 °F 39.2 °F 26% 29.89 in - North 5.8 mph - N/A   Clear
9:00 PM 73.4 °F 39.2 °F 29% 29.92 in - North 8.1 mph - N/A   Clear
10:00 PM 69.8 °F 39.2 °F 33% 29.92 in - North 8.1 mph - N/A   Clear
11:00 PM 69.8 °F 35.6 °F 28% 29.92 in - North 5.8 mph - N/A   Clear